SP7WMI-13 Weather Reports


time (UTC)temp
C
wind
direction
speed
KPH
gust
KPH
rain 1hr
cm
rain 24hr
cm
rain mn
cm
humidity
%
barometer
mb
20260905194425 13 285 1.6 6.4 0.00 0.00 0.30 100 1014.8
20260905192922 13 305 1.6 4.8 0.00 0.00 0.30 100 1014.8
20260905191419 13 97 1.6 3.2 0.00 0.00 0.30 100 1014.6
20260905185915 13 64 3.2 9.7 0.00 0.00 0.30 100 1014.7
20260905184412 13 356 4.8 12.9 0.00 0.00 0.28 100 1015.0
20260905182909 13 63 11.3 11.3 0.00 0.00 0.28 100 1014.8
20260905181406 14 284 1.6 4.8 0.00 0.00 0.28 100 1014.3
20260905175902 13 268 3.2 6.4 0.00 0.00 0.28 100 1014.4
20260905174359 13 94 3.2 4.8 0.00 0.00 0.28 100 1014.5
20260905172856 14 100 4.8 12.9 0.00 0.00 0.23 100 1014.4
20260905171352 14 298 0.0 3.2 0.00 0.00 0.23 100 1014.0
20260905165849 14 283 0.0 3.2 0.00 0.00 0.23 100 1013.8
20260905164346 14 270 3.2 4.8 0.00 0.00 0.23 100 1013.9
20260905162843 14 292 0.0 3.2 0.00 0.00 0.23 100 1014.0
20260905161339 16 46 8.0 12.9 0.00 0.00 0.15 100 1014.3
20260905155836 17 315 0.0 6.4 0.00 0.00 0.03 75 1013.1
20260905154333 17 281 1.6 4.8 0.00 0.00 0.03 74 1013.1
20260905152829 17 306 0.0 3.2 0.00 0.00 0.03 76 1013.3
20260905151326 17 315 0.0 3.2 0.00 0.00 0.03 77 1013.2
20260905145823 17 72 3.2 6.4 0.00 0.00 0.03 79 1013.2
20260905144320 16 339 0.0 6.4 0.00 0.00 0.03 79 1013.1
20260905142816 17 52 0.0 9.7 0.00 0.00 0.03 77 1013.1
20260905141313 19 94 6.4 14.5 0.00 0.00 0.00 60 1013.1
20260905135810 20 83 4.8 17.7 0.00 0.00 0.00 52 1012.7
20260905134306 21 81 14.5 20.9 0.00 0.00 0.00 51 1012.8
20260905132803 21 302 4.8 9.7 0.00 0.00 0.00 50 1012.5
20260905131300 22 82 4.8 12.9 0.00 0.00 0.00 49 1012.6
20260905125757 22 256 6.4 17.7 0.00 0.00 0.00 48 1012.8
20260905124253 21 270 3.2 12.9 0.00 0.00 0.00 51 1012.7
20260905122750 20 63 12.9 16.1 0.00 0.00 0.00 52 1012.8
20260905121247 19 45 0.0 12.9 0.00 0.00 0.00 55 1013.0
20260905115743 19 102 3.2 11.3 0.00 0.00 0.00 55 1012.9
20260905114240 19 83 9.7 12.9 0.00 0.00 0.00 55 1013.0
20260905112737 19 300 4.8 14.5 0.00 0.00 0.00 55 1012.7
20260905111234 18 276 4.8 12.9 0.00 0.00 0.00 58 1012.8
20260905105730 18 96 6.4 16.1 0.00 0.00 0.00 58 1012.5
20260905104227 18 80 12.9 16.1 0.00 0.00 0.00 58 1012.7
20260905102724 17 110 9.7 17.7 0.00 0.00 0.00 63 1012.5
20260905101220 17 60 1.6 14.5 0.00 0.00 0.00 66 1012.7
20260905095717 17 271 6.4 17.7 0.00 0.00 0.00 69 1012.5
20260905094214 17 294 6.4 9.7 0.00 0.00 0.00 73 1012.4
20260905092711 17 304 4.8 14.5 0.00 0.00 0.00 76 1012.3
20260905091207 17 357 4.8 19.3 0.00 0.00 0.00 76 1012.3
20260905085704 16 349 6.4 11.3 0.00 0.00 0.00 82 1012.3
20260905084201 16 112 1.6 1.6 0.00 0.00 0.00 85 1012.1
20260904204527 17 281 3.2 6.4 0.00 0.00 0.00 100 1005.5
20260904203023 17 274 1.6 4.8 0.00 0.00 0.71 100 1005.6
20260904201520 17 84 8.0 11.3 0.00 0.00 0.71 100 1006.0
20260904200017 17 267 3.2 17.7 0.00 0.00 0.71 100 1005.8